Clear Lake, IA

5:38 PM CST on February 20, 2017 (GMT -0600)
Mason City Municipal

Weather History for KMCW - November, 2010

Change the Weather History Date:

Thursday, November 4, 2010

  Actual Average Record
Temperature  
Mean Temperature 35 °F 40 °F  
Max Temperature 46 °F 50 °F 72 °F (1975)
Min Temperature 24 °F 30 °F 0 °F (1991)
Degree Days  
Heating Degree Days 30 25  
Month to date heating degree days 103 96  
Since 1 July heating degree days 671 834  
Cooling Degree Days 0 0  
Month to date cooling degree days 0 0  
Year to date cooling degree days 740 616  
Moisture  
Dew Point 26 °F    
Average Humidity 61    
Maximum Humidity 89    
Minimum Humidity 33    
Precipitation  
Precipitation 0.00 in 0.07 in 0.79 in (1938)
Month to date precipitation T 0.28  
Year to date precipitation 26.31 32.36  
Snow  
Snow 0.00 in 0.00 in 0.40 in (1959)
Month to date snowfall 0.0 0.2  
Since 1 July snowfall T 0.6  
Since 1 September snowfall T 0.6  
Snow Depth 0.00 in    
Sea Level Pressure  
Sea Level Pressure 30.10 in    
Wind  
Wind Speed 20 mph (NNW)    
Max Wind Speed 33 mph    
Max Gust Speed 43 mph    
Visibility 10 miles    
Events      
T = Trace of Precipitation, MM = Missing Value Source: NWS Daily Summary

Daily Weather History Graph

Daily Weather History Graph

Search for Another Location

Airport or City:

Trip Planner

Search our weather history database for the weather conditions in past years. The results will help you decide how hot, cold, wet, or windy it might be!

Date:

Astronomy

Nov. 04, 2010 Rise Set
Actual Time 7:51 AM CDT 6:01 PM CDT
Civil Twilight 7:22 AM CDT 6:31 PM CDT
Nautical Twilight 6:48 AM CDT 7:04 PM CDT
Astronomical Twilight 6:15 AM CDT 7:37 PM CDT
Moon 6:03 AM CDT (11/4) 4:46 PM CDT (11/4)
Length of Visible Light 11h 08m
Length of Day
10h 09m
Waning Crescent, 3% of the Moon is Illuminated
Nov 4
Waning Crescent
Nov 5
New
Nov 13
First Quarter
Nov 21
Full
Nov 28
Last Quarter

Hourly Weather History & Observations

Time (CDT) Temp. Windchill Dew Point Humidity Pressure Visibility Wind Dir Wind Speed Gust Speed Precip Events Conditions
12:53 AM 42.1 °F 33.3 °F 34.0 °F 73% 30.09 in 10.0 mi NNW 19.6 mph - N/A   Clear
1:53 AM 42.1 °F 33.6 °F 34.0 °F 73% 30.09 in 10.0 mi NW 18.4 mph 27.6 mph N/A   Clear
2:53 AM 39.9 °F 31.8 °F 34.0 °F 79% 30.08 in 10.0 mi NW 15.0 mph - N/A   Clear
3:53 AM 37.9 °F 28.5 °F 33.1 °F 83% 30.07 in 10.0 mi NW 17.3 mph - N/A   Clear
4:53 AM 37.0 °F 27.4 °F 33.1 °F 86% 30.07 in 10.0 mi NW 17.3 mph - N/A   Clear
5:53 AM 37.0 °F 27.4 °F 32.0 °F 82% 30.07 in 10.0 mi NW 17.3 mph - N/A   Clear
6:53 AM 36.0 °F 25.6 °F 32.0 °F 86% 30.07 in 10.0 mi NW 18.4 mph - N/A   Clear
7:53 AM 36.0 °F 25.0 °F 32.0 °F 86% 30.09 in 10.0 mi NW 20.7 mph 27.6 mph N/A   Clear
8:53 AM 37.9 °F 27.3 °F 32.0 °F 79% 30.09 in 10.0 mi NNW 21.9 mph 31.1 mph N/A   Clear
9:53 AM 39.9 °F 28.4 °F 32.0 °F 73% 30.09 in 10.0 mi NNW 29.9 mph 35.7 mph N/A   Clear
10:53 AM 42.1 °F 31.5 °F 30.9 °F 65% 30.09 in 10.0 mi North 28.8 mph 38.0 mph N/A   Scattered Clouds
11:11 AM 42.8 °F 32.5 °F 30.2 °F 61% 30.08 in 10.0 mi NNW 28.8 mph 36.8 mph N/A   Mostly Cloudy
11:27 AM 42.8 °F 33.3 °F 28.4 °F 57% 30.08 in 10.0 mi NNW 24.2 mph 36.8 mph N/A   Mostly Cloudy
11:53 AM 44.1 °F 34.2 °F 27.0 °F 51% 30.09 in 10.0 mi North 28.8 mph 35.7 mph N/A   Scattered Clouds
12:53 PM 43.0 °F 33.1 °F 27.0 °F 53% 30.09 in 10.0 mi NNW 26.5 mph 35.7 mph N/A   Overcast
1:53 PM 44.1 °F 34.2 °F 23.0 °F 43% 30.07 in 10.0 mi North 28.8 mph 38.0 mph N/A   Mostly Cloudy
2:53 PM 46.0 °F 37.0 °F 23.0 °F 40% 30.07 in 10.0 mi NNW 27.6 mph 35.7 mph N/A   Partly Cloudy
3:53 PM 45.0 °F 35.2 °F 19.0 °F 36% 30.08 in 10.0 mi NNW 29.9 mph 35.7 mph N/A   Clear
4:53 PM 44.1 °F 35.0 °F 18.0 °F 35% 30.10 in 10.0 mi NNW 24.2 mph 31.1 mph N/A   Clear
5:53 PM 39.9 °F 31.4 °F 19.0 °F 43% 30.12 in 10.0 mi North 16.1 mph - N/A   Clear
6:53 PM 37.0 °F 27.7 °F 17.1 °F 44% 30.13 in 10.0 mi North 16.1 mph - N/A   Clear
7:53 PM 33.1 °F 23.9 °F 17.1 °F 52% 30.14 in 10.0 mi North 12.7 mph - N/A   Clear
8:53 PM 32.0 °F 22.5 °F 17.1 °F 54% 30.15 in 10.0 mi North 12.7 mph - N/A   Clear
9:53 PM 28.0 °F 19.3 °F 16.0 °F 61% 30.17 in 10.0 mi NNW 9.2 mph - N/A   Clear
10:53 PM 28.0 °F 18.6 °F 16.0 °F 61% 30.17 in 10.0 mi NNW 10.4 mph - N/A   Clear
11:53 PM 25.0 °F 15.5 °F 16.0 °F 69% 30.18 in 10.0 mi WNW 9.2 mph - N/A   Clear